Regional Weather Roundup
Issued by NWS Memphis, TN

Home | Current Version | Previous Version | Text Only | Print | Product List | Glossary On
Versions: 1 2 3 4 5 6 7 8 9 10 11 12 13 14 15 16 17 18 19 20 21 22 23 24 25 26 27 28 29 30 31 32 33 34 35 36 37 38 39 40 41 42 43 44 45 46 47 48 49 50
000
ASUS44 KMEG 050210
RWRMEG
MEMPHIS CWA HOURLY WEATHER ROUNDUP
NATIONAL WEATHER SERVICE MEMPHIS TN
900 PM CDT MON MAY 04 2015

...WEST TENNESSEE...

CITY           SKY/WX    TMP DP  RH WIND       PRES   REMARKS
MEMPHIS INTL   PTCLDY    72  55  55 S6        30.14S
NWS MEMPHIS      N/A     73 N/A N/A MISG        N/A
JACKSON        CLEAR     69  50  50 SE6       30.17R
LEXINGTON      CLEAR     63  54  72 CALM      30.18S
DYERSBURG      CLEAR     72  43  35 SE5       30.16S
PARIS          CLEAR     66  52  59 S5        30.18S


...EASTERN ARKANSAS...

CITY           SKY/WX    TMP DP  RH WIND       PRES   REMARKS
JONESBORO      CLEAR     71  48  43 S8        30.11S
WEST MEMPHIS   CLEAR     68  55  63 SE7       30.12S
BATESVILLE     CLEAR     72  54  53 SE5       30.10S
NEWPORT        CLEAR     70  52  52 S6        30.11S
WALNUT RIDGE   CLEAR     72  52  49 S9        30.10S
BLYTHEVILLE    CLEAR     72  49  44 S6        30.13S
SEARCY         CLEAR     68  57  68 CALM      30.11S
STUTTGART      CLEAR     72  54  53 SE8       30.12R
PINE BLUFF     CLEAR     69  57  65 S7        30.11R
MONTICELLO     CLEAR     73  58  59 SE3       30.12R


...NORTH MISSISSIPPI...

CITY           SKY/WX    TMP DP  RH WIND       PRES   REMARKS
TUPELO         CLEAR     73  50  44 S7        30.18R
OXFORD         LGT RAIN  66  57  72 SE3       30.19R
OLIVE BRANCH   CLEAR     73  55  53 SE7       30.15S
TUNICA         CLEAR     72  55  56 SE8       30.14S
CLARKSDALE     CLEAR     73  55  53 SE8       30.14S
CORINTH        CLEAR     66  55  68 SE3       30.18R
GREENWOOD      CLEAR     68  61  78 CALM      30.15R
COLUMBUS       CLEAR     66  56  70 SE5       30.19R
STARKVILLE     FAIR      70  55  60 SE5       30.19R
GOLDEN TRIANGL   N/A     72  52  49 SE8       30.18S


...SOUTHEAST MISSOURI...

CITY           SKY/WX    TMP DP  RH WIND       PRES   REMARKS
WEST PLAINS    CLEAR     71  53  52 S6        30.10R
POPLAR BLUFF   CLEAR     73  54  51 S6        30.09R
CAPE GIRARDEAU CLEAR     73  54  51 S7        30.11R


...NORTHWEST ALABAMA...

CITY           SKY/WX    TMP DP  RH WIND       PRES   REMARKS
MUSCLE SHOALS  CLEAR     66  57  72 SE3       30.22R


...MIDDLE TENNESSEE...

CITY           SKY/WX    TMP DP  RH WIND       PRES   REMARKS
NASHVILLE      CLEAR     71  54  54 S5        30.21R
CLARKSVILLE    CLEAR     69  54  58 S3        30.18R
COLUMBIA       CLEAR     64  55  72 CALM      30.20S


...WESTERN KENTUCKY...

CITY           SKY/WX    TMP DP  RH WIND       PRES   REMARKS
PADUCAH        CLEAR     72  55  55 S6        30.13R
FORT CAMPBELL  CLEAR     73  54  51 S6        30.18R


...CENTRAL ARKANSAS...

CITY           SKY/WX    TMP DP  RH WIND       PRES   REMARKS
LITTLE ROCK    CLEAR     70  58  65 S6        30.10R


SKY/WX REPORTED AS FAIR MEANS FEW OR NO CLOUDS BELOW
12 THOUSAND FEET.



USA.gov is the U.S. government's official web portal to all federal, state and local government web resources and services.